[[{"header":{"parameterUnit":"m.s-1","parameterCategory":1,"la1":30.2991,"la2":30.254,"lo1":-89.0895,"lo2":-89.0444,"dy":0.0017,"dx":0.0017,"nx":28,"ny":28,"refTime":"2024-07-09T03:00:00:Z","depth":0,"parameterNumber":2,"parameterNumberName":"U-component_of_WINDS"},"data":[0,0,0,0,0,0,0,0,0,0,0,0,0,0,0,0,0,0,0,0,0,0,0,0,0,0,0,0,0,0,0,0,0,0,0,0,0,0,0,0,0,0,0,0,0,0,0,0,0,0,0,0,0,0,0,0,0,0,4.2473,4.2473,0,4.2515,4.2515,4.2516,4.2455,4.2453,4.2451,4.2449,4.249,4.2493,4.2496,0,0,0,0,0,0,0,0,0,0,0,0,0,4.2336,4.2338,4.2473,4.2473,4.2474,4.2515,4.2515,4.2516,4.2455,4.2453,4.245,4.2448,4.2489,4.2492,4.2496,0,0,0,0,0,0,0,0,0,0,0,0,0,4.2388,4.2339,4.2473,4.2448,4.2447,4.2514,4.2515,4.2516,4.2456,4.2453,4.2449,4.2446,4.2487,4.2492,4.2496,4.2589,0,0,4.2511,4.2513,0,0,0,0,0,0,0,0,4.2385,4.2393,4.2451,4.245,4.2448,4.2476,4.2482,4.254,4.2457,4.2452,4.2448,4.2445,4.2488,4.2492,4.2507,4.2591,4.2593,4.2511,4.2514,4.2516,4.2517,0,0,0,0,0,0,0,4.2382,4.2391,4.2489,4.2452,4.2451,4.2434,4.2438,4.2493,4.2487,4.2452,4.2448,4.2454,4.2486,4.2503,4.2507,4.2593,4.2511,4.2515,4.2518,4.252,4.2751,4.2754,0,0,0,0,0,0,4.2381,4.2388,4.2488,4.249,4.2408,4.2439,4.2444,4.2471,4.2487,4.2486,4.2457,4.2451,4.2496,4.2502,4.2509,4.2614,4.2516,4.252,4.2523,4.2747,4.2751,4.2755,0,0,0,0,0,0,4.2379,4.2391,4.2486,4.2438,4.2449,4.2445,4.2476,4.2473,4.2489,4.249,4.2488,4.2475,4.2494,4.2502,4.2569,4.2615,4.2522,4.2526,4.2743,4.2749,4.2753,4.2829,0,0,0,0,0,0,4.2375,4.239,4.2427,4.244,4.2452,4.2547,4.2479,4.2476,4.2498,4.2491,4.2506,4.2506,4.2492,4.2562,4.2573,4.262,4.253,4.2739,4.2746,4.2752,4.2822,4.2836,4.2848,0,0,0,0,0,4.237,4.2447,4.2429,4.2441,4.2498,4.255,4.2557,4.254,4.2502,4.2537,4.2537,4.2505,4.2609,4.2569,4.2581,4.263,4.2736,4.2744,4.2751,4.2816,4.2833,4.2847,0,0,0,0,0,0,4.244,4.2448,4.2428,4.2512,4.2531,4.2539,4.2584,4.2559,4.2588,4.2581,4.2558,4.2562,4.2632,4.2638,4.2594,4.2718,4.2666,4.2676,4.2711,4.2727,4.274,4.2735,4.2534,0,0,0,0,0,4.2465,4.2508,4.2513,4.2586,4.2596,4.2589,4.2611,4.2596,4.2614,4.2622,4.2626,4.2644,4.268,4.2705,4.2738,4.2824,4.2824,4.2863,4.2875,4.2886,4.2894,4.2935,4.2951,4.278,4.278,4.278,0,0,4.2518,4.2527,4.2556,4.26,4.2613,4.2655,4.2596,4.2645,4.2675,4.2629,4.2691,4.2695,4.2713,4.2788,4.2822,4.2795,4.2942,4.2896,4.2904,4.2906,4.2945,4.2961,4.2975,4.2785,4.2784,4.2783,0,0,4.2634,4.2647,4.2707,4.2721,4.274,4.2734,4.2749,4.2761,4.2761,4.2824,4.2788,4.2824,4.2888,4.2901,4.2916,4.3034,4.3005,4.3046,4.3112,4.3152,4.3165,4.3177,4.3215,4.323,4.3055,4.3055,4.3055,0,4.2696,4.276,4.2741,4.2791,4.281,4.277,4.2828,4.2842,4.2872,4.2885,4.2856,4.2932,4.2942,4.3018,4.3046,4.3061,4.3074,4.3043,4.3165,4.3177,4.3187,4.3223,4.3238,4.306,4.3059,4.3059,4.3058,0,4.2832,4.2877,4.2923,4.2951,4.2976,4.303,4.3018,4.3044,4.3027,4.3024,4.3085,4.3096,4.3128,4.3146,4.313,4.3218,4.3201,4.3169,4.3115,4.3209,4.3242,4.3256,4.3066,4.3065,4.3063,4.3062,0,0,4.2994,4.3009,4.3026,4.3036,4.3054,4.3087,4.3139,4.3171,4.3192,4.3214,4.3253,4.3307,4.3277,4.3294,4.3279,4.3315,4.3402,4.3278,4.3278,4.3297,4.3495,4.3516,4.3533,4.3384,4.3387,4.3389,4.3492,0,4.3106,4.3194,4.3178,4.3263,4.3301,4.3263,4.3307,4.3321,4.3319,4.335,4.3348,4.3384,4.3344,4.3353,4.3387,4.3385,4.3441,4.3378,4.3418,4.342,4.3411,4.3551,4.3574,4.3671,4.3506,4.3508,4.3509,0,4.3249,4.3274,4.3363,4.337,4.3386,4.3426,4.3451,4.3483,4.3497,4.3493,4.3511,4.3489,4.3537,4.3485,4.3549,4.3506,4.3522,4.3523,4.3526,4.3527,4.3468,4.3551,4.3702,4.3715,4.3531,4.3529,4.3527,0,4.3352,4.3409,4.3467,4.3478,4.349,4.3518,4.3524,4.3535,4.3554,4.3577,4.3588,4.3617,4.3632,4.3654,4.3639,4.3603,4.3704,4.3652,4.3699,4.3699,4.372,4.3718,4.3871,4.3736,4.3736,4.3736,4.3736,0,4.3477,4.3532,4.3513,4.3549,4.3608,4.3588,4.3647,4.3648,4.3658,4.3692,4.3662,4.3695,4.3674,4.3705,4.3694,4.3746,4.3754,4.375,4.3745,4.3751,4.375,4.3758,4.375,4.374,4.3739,4.3738,4.3737,0,4.3601,4.3592,4.3653,4.3658,4.366,4.3703,4.3707,4.3739,4.3734,4.3777,4.3786,4.3778,4.3812,4.38,4.3836,4.3828,4.3894,4.3883,4.3889,4.3885,4.3931,4.3926,4.4092,4.4111,4.3968,4.3969,4.397,0,4.368,4.3721,4.373,4.375,4.3758,4.3792,4.381,4.3791,4.3812,4.3829,4.3859,4.389,4.3913,4.3969,4.3965,4.3992,4.3979,4.4036,4.3983,4.3985,4.3975,4.3971,4.3973,4.4045,4.4047,4.4048,4.4049,0,4.3819,4.3812,4.384,4.3865,4.3888,4.3907,4.3924,4.3942,4.3924,4.3948,4.3982,4.4,4.4036,4.4066,4.409,4.4094,4.4068,4.4066,4.4078,4.4081,4.4081,4.4078,4.3914,4.4062,4.4061,4.406,4.4059,4.4058,4.392,4.3953,4.3963,4.3994,4.4004,4.402,4.4049,4.4047,4.4075,4.4102,4.4089,4.4127,4.4138,4.4166,4.4174,4.4203,4.4181,4.4199,4.4202,4.4206,4.421,4.408,4.4208,4.4207,4.4207,4.4207,4.4206,0,4.4054,4.4058,4.4087,4.411,4.4133,4.4107,4.4124,4.4145,4.4178,4.419,4.4213,4.425,4.4279,4.4277,4.4303,4.4325,4.4313,4.4332,4.4328,4.4329,4.4231,4.4216,4.4341,4.4341,4.4341,4.4341,4.4341,4.4341,4.4126,4.4178,4.4171,4.4227,4.4231,4.4267,4.4278,4.4291,4.43,4.4342,4.4365,4.4364,4.437,4.4395,4.4419,4.4418,4.4427,4.4449,4.4443,4.435,4.4337,4.4324,4.431,4.4452,4.4452,4.4538,4.4539,4.454]},{"header":{"parameterUnit":"m.s-1","parameterCategory":1,"la1":30.2991,"la2":30.254,"lo1":-89.0895,"lo2":-89.0444,"dy":0.0017,"dx":0.0017,"nx":28,"ny":28,"refTime":"2024-07-09T03:00:00:Z","depth":0,"parameterNumber":3,"parameterNumberName":"V-component_of_WINDS"},"data":[0,0,0,0,0,0,0,0,0,0,0,0,0,0,0,0,0,0,0,0,0,0,0,0,0,0,0,0,0,0,0,0,0,0,0,0,0,0,0,0,0,0,0,0,0,0,0,0,0,0,0,0,0,0,0,0,0,0,7.6057,7.6058,0,7.6161,7.6163,7.6164,7.6094,7.6091,7.6088,7.6085,7.6185,7.6191,7.6196,0,0,0,0,0,0,0,0,0,0,0,0,0,7.5789,7.5794,7.6057,7.6058,7.606,7.6161,7.6163,7.6164,7.6094,7.6091,7.6087,7.6083,7.6183,7.619,7.6197,0,0,0,0,0,0,0,0,0,0,0,0,0,7.59,7.5796,7.6057,7.6037,7.6036,7.6161,7.6163,7.6164,7.6095,7.609,7.6086,7.6081,7.6181,7.6189,7.6198,7.6345,0,0,7.6223,7.6227,0,0,0,0,0,0,0,0,7.5894,7.591,7.6039,7.6039,7.6038,7.611,7.6105,7.6225,7.6096,7.6073,7.6084,7.6079,7.6164,7.6173,7.6203,7.635,7.6354,7.6224,7.6229,7.6233,7.6235,0,0,0,0,0,0,0,7.5886,7.5905,7.6098,7.6041,7.604,7.602,7.6031,7.6127,7.6143,7.6074,7.607,7.6083,7.6162,7.6195,7.6205,7.6356,7.6224,7.6232,7.6237,7.624,7.6624,7.6629,0,0,0,0,0,0,7.5881,7.5899,7.6095,7.6101,7.5953,7.6029,7.6041,7.6092,7.6142,7.6145,7.6087,7.608,7.6183,7.6195,7.6208,7.6381,7.6233,7.6241,7.6246,7.6619,7.6625,7.663,0,0,0,0,0,0,7.5876,7.5899,7.609,7.5999,7.6022,7.6039,7.6096,7.6096,7.6129,7.6152,7.6154,7.6118,7.618,7.6196,7.6311,7.6383,7.6245,7.6252,7.6613,7.6621,7.6628,7.673,0,0,0,0,0,0,7.5868,7.5898,7.5956,7.6001,7.6027,7.6195,7.6101,7.6102,7.6144,7.6135,7.6181,7.6184,7.6177,7.6299,7.6319,7.6393,7.6259,7.6606,7.6616,7.6625,7.672,7.674,7.6757,0,0,0,0,0,7.5859,7.598,7.596,7.5984,7.6101,7.6199,7.6213,7.6205,7.6151,7.6207,7.6222,7.6183,7.6373,7.6311,7.6334,7.6411,7.6601,7.6613,7.6624,7.6712,7.6736,7.6757,0,0,0,0,0,0,7.5942,7.5986,7.5963,7.6103,7.6148,7.6187,7.6259,7.6231,7.6291,7.628,7.6264,7.6275,7.6394,7.6414,7.6345,7.6554,7.6478,7.6495,7.6537,7.656,7.6578,7.657,7.6266,0,0,0,0,0,7.5977,7.6056,7.6089,7.6209,7.6233,7.6242,7.6285,7.6274,7.6319,7.6337,7.6359,7.6402,7.6471,7.6517,7.6582,7.6723,7.673,7.6786,7.6805,7.682,7.6834,7.6906,7.6931,7.6668,7.6668,7.6668,0,0,7.605,7.6083,7.6134,7.6226,7.626,7.6338,7.6259,7.6346,7.6403,7.6349,7.6459,7.6477,7.6523,7.6651,7.6708,7.6671,7.6908,7.6835,7.6847,7.6853,7.6921,7.6945,7.6967,7.6676,7.6675,7.6673,0,0,7.6221,7.6257,7.6359,7.6394,7.6446,7.6451,7.6475,7.6518,7.6528,7.6639,7.6599,7.6665,7.6785,7.6819,7.6852,7.7034,7.6999,7.7055,7.7152,7.7222,7.7243,7.7261,7.7323,7.7345,7.7069,7.707,7.707,0,7.6304,7.6424,7.6414,7.6504,7.6544,7.6501,7.6602,7.6636,7.6705,7.6733,7.669,7.6838,7.6867,7.7,7.7044,7.7073,7.7098,7.7049,7.7241,7.7259,7.7276,7.7334,7.7358,7.7076,7.7075,7.7075,7.7074,0,7.6521,7.6604,7.668,7.675,7.6799,7.6894,7.6895,7.6946,7.693,7.6939,7.7049,7.7081,7.7151,7.7182,7.7167,7.7312,7.7287,7.7244,7.7167,7.7308,7.7362,7.7385,7.7085,7.7083,7.7081,7.7079,0,0,7.6749,7.6811,7.6839,7.6868,7.6921,7.6984,7.7075,7.7144,7.7186,7.7235,7.7308,7.741,7.7369,7.7407,7.7395,7.7458,7.7595,7.7406,7.7406,7.7437,7.7752,7.7783,7.781,7.7573,7.7577,7.7581,7.7747,0,7.6921,7.7083,7.7076,7.7226,7.73,7.7258,7.7337,7.7377,7.7387,7.7449,7.7458,7.753,7.7472,7.7494,7.7554,7.7566,7.7658,7.7554,7.7638,7.7641,7.7626,7.7839,7.7872,7.8028,7.7769,7.7773,7.7775,0,7.7144,7.7201,7.7359,7.7398,7.7429,7.7501,7.7562,7.7623,7.7665,7.7667,7.7709,7.7686,7.7775,7.7697,7.7817,7.7747,7.778,7.7791,7.7797,7.7802,7.7715,7.7847,7.8078,7.81,7.7809,7.7807,7.7804,0,7.729,7.7407,7.7516,7.7543,7.7592,7.7642,7.7665,7.7702,7.7743,7.7796,7.7821,7.7883,7.7917,7.7964,7.7957,7.7902,7.8078,7.8,7.8079,7.8079,7.8117,7.8114,7.8354,7.8143,7.8143,7.8142,7.8142,0,7.7482,7.758,7.7582,7.7648,7.7755,7.7744,7.7849,7.7865,7.7899,7.7965,7.7933,7.7995,7.7984,7.8046,7.8041,7.8139,7.8155,7.8157,7.8154,7.8159,7.8158,7.8179,7.8167,7.8148,7.8147,7.8146,7.8145,0,7.7663,7.7669,7.7784,7.7821,7.7832,7.7909,7.7939,7.8,7.8007,7.8091,7.811,7.812,7.819,7.8189,7.8269,7.8266,7.8385,7.8371,7.8372,7.8368,7.8446,7.8437,7.8705,7.8738,7.8508,7.8511,7.8512,0,7.7785,7.7859,7.7903,7.7946,7.7972,7.8042,7.8084,7.8075,7.8119,7.8171,7.8225,7.8293,7.8346,7.846,7.8473,7.8533,7.8518,7.8608,7.8527,7.8528,7.8516,7.8511,7.8516,7.8623,7.8626,7.8628,7.8629,0,7.7998,7.7996,7.8059,7.8122,7.8173,7.8221,7.8266,7.8302,7.8298,7.8348,7.8421,7.8463,7.8544,7.861,7.8668,7.8687,7.8657,7.8655,7.8676,7.868,7.8676,7.8676,7.8412,7.8648,7.8647,7.8645,7.8644,7.8643,7.8151,7.8213,7.8254,7.8323,7.8356,7.8398,7.8457,7.8471,7.8532,7.8598,7.8589,7.8668,7.8705,7.8779,7.8804,7.8864,7.8832,7.8863,7.887,7.8878,7.8885,7.8669,7.8875,7.8874,7.8874,7.8873,7.8873,0,7.8359,7.8383,7.8448,7.8511,7.8565,7.8534,7.8581,7.8627,7.8698,7.8736,7.879,7.8871,7.8934,7.8952,7.9012,7.9057,7.9044,7.9073,7.9068,7.9072,7.8912,7.8886,7.9082,7.9082,7.9082,7.9082,7.9081,7.9081,7.8474,7.8578,7.8581,7.8698,7.872,7.88,7.8829,7.8866,7.8896,7.8988,7.9042,7.9053,7.9081,7.9143,7.9199,7.9202,7.9224,7.9258,7.9256,7.9105,7.9084,7.9064,7.904,7.9264,7.9264,7.941,7.9412,7.9413]}]]